Regional Weather Roundup
Issued by NWS New Orleans/Baton Rouge, LA

Home | Current Version | Previous Version | Text Only | Print | Product List | Glossary On
Versions: 1 2 3 4 5 6 7 8 9 10 11 12 13 14 15 16 17 18 19 20 21 22 23 24 25 26 27 28 29 30 31 32 33 34 35 36 37 38 39 40 41 42 43 44 45 46 47 48 49 50
587
ASUS44 KLIX 191401
RWRLIX
NEW ORLEANS REGIONAL WEATHER ROUNDUP
NATIONAL WEATHER SERVICE NEW ORLEANS LA
800 AM CST FRI DEC 19 2014

NOTE: "FAIR" INDICATES FEW OR NO CLOUDS BELOW 12,000 FEET WITH NO
      SIGNIFICANT WEATHER AND/OR OBSTRUCTIONS TO VISIBILITY.
      SKY/WX - SKY CONDITION AND SIGNIFICANT WEATHER.
      TMP - AIR TEMPERATURE.     DP    - DEWPOINT TEMPERATURE.
      RH  - RELATIVE HUMIDITY.   PRES  - PRESSURE.
      HI  - HEAT INDEX.          WCI   - WIND CHILL INDEX.

*  THESE STATIONS ARE NOT NWS OR FAA STATIONS AND ARE NOT UNDER
   NWS QUALITY CONTROL.

LAZ038-040-048-061>063-065>067-069-191500-
SOUTHEAST LOUISIANA

CITY           SKY/WX    TMP DP  RH WIND       PRES   REMARKS
N.O. AUDUBON   NOT AVBL
N.O. INTL ARPT CLOUDY    56  52  86 NE16      30.15R
N.O. LAKEFRONT LGT RAIN  57  52  83 NE14      30.16R
N.O. DOWNTOWN* CLOUDY    57  48  72 NE7       30.15R
SLIDELL        CLOUDY    53  51  93 NE7       30.15R
BATON ROUGE    CLOUDY    54  52  93 E9        30.13F FOG
BOOTHVILLE     CLOUDY    61  57  87 NE9       30.11R
BELLE CHASSE   CLOUDY    56  54  93 NE10      30.14R
BOGALUSA*      RAIN      51  47  88 NE6       30.21R
GALLIANO*      NOT AVBL
NEW ROADS*     NOT AVBL
GONZALES*      NOT AVBL
HAMMOND*       NOT AVBL
HOUMA*         CLOUDY    57  55  94 N12       30.11R
PORT FOURCHON* CLOUDY    63  59  88 NE15      30.12S

$$

MSZ070-080>082-191500-
SOUTHERN MISSISSIPPI

CITY           SKY/WX    TMP DP  RH WIND       PRES   REMARKS
MCCOMB         LGT RAIN  48  46  93 E6        30.17R FOG
GULFPORT       HVY RAIN  50  47  89 NE13      30.16R
BILOXI         RAIN      49  49 100 E12       30.16S FOG
PASCAGOULA     HVY RAIN  47  45  93 NE5       30.20R FOG
STENNIS ARPT*  RAIN      50  48  93 N12       30.18R

$$

COASTAL OBSERVATIONS
LAKE AND NEARSHORE STATIONS

STATION/POSITION TIME  TEMP    WIND        PRES    WAVE
                       AIR SEA DIR/SP/G            HT/PER
                 (UTC) (F)     (DEG/KT/KT) (MB)    (FT/S)
PASCAGOULA       1300   51      50/ 12/ 14 1019.4
WAVELAND YACHT   1300   51      40/ 12/ 14 1020.4
GRAND ISLE       1300   61 62   60/ 10/ 13 1019.6
SOUTHWEST PASS   1300   63                 1018.7
NEW CANAL        1300   56 58   40/ 15/ 17 1021.3
SHELL BEACH      1300   57 60   50/ 13/ 14 1020.4

OFFSHORE STATIONS

STATION/POSITION TIME  TEMP    WIND        PRES    WAVE
                       AIR SEA DIR/SP/G            HT/PER
                 (UTC) (F)     (DEG/KT/KT) (MB)    (FT/S)
64 S DAUPHIN ISL 1400   69 75  100/ 16/ 19 1018.5    3/ 4

$$




USA.gov is the U.S. government's official web portal to all federal, state and local government web resources and services.